Flag for Canada Weather past 2 weeks in Cumberland County, Nova Scotia, Canada

Now
37 °F

Chilly.


Feels Like: 37 °F
Forecast: 27 / 41 °F
Wind: 2 mph from Southeast

Location: Kentville

Current Time: Apr 18, 2015 at 2:37:50 AM

Latest Report: Apr 18, 2015 at 2:00 AM


Visibility: N/A

Pressure: 29.75 "Hg

Humidity: 99%

Dew point: 37 °F

Location of Cumberland CountyLocation

Historic Weather in Cumberland County — Graph

°F

Cumberland County temperature yesterday

Maximum temperature yesterday: 56 °F (at 1:00 PM)
Minimum temperature yesterday: 31 °F (at 4:00 AM)
Average temperature yesterday: 43 °F

Past Weeks' High & Low Weather Summary

 TemperatureHumidityPressure
High56 °F (Apr 17, 1:00 PM)100% (Apr 4, 5:00 AM)30.56 "Hg (Apr 4, 5:00 AM)
Low9 °F (Apr 6, 7:00 AM)24% (Apr 16, 5:00 PM)29.12 "Hg (Apr 4, 5:00 PM)
Average37 °F67%30.06 "Hg
* Reported Apr 3 1:00 AM — Apr 18 1:00 AM, Cumberland County, Weather by CustomWeather, © 2015

Note: Actual official high and low records may vary slightly from our data, if they occured in-between our weather recording intervals... More about our weather records

Advertising

Cumberland County weather history for previous 24 hours

 ConditionsComfort  
Time TempWeatherWind HumidityBarometerVisibility
1:00 AM
Sat, Apr 18
38 °FChilly.2 mph97%29.72 "HgN/A
12:00 AM37 °FChilly.1 mph98%29.73 "HgN/A
11:00 PM
Fri, Apr 17
37 °FChilly.3 mph96%29.73 "HgN/A
10:00 PM40 °FChilly.2 mph94%29.73 "HgN/A
9:00 PM42 °FQuite cool.3 mph91%29.74 "HgN/A
8:00 PM45 °FCool.2 mph79%29.73 "HgN/A
7:00 PM49 °FCool.5 mph70%29.72 "HgN/A
6:00 PM48 °FCool.9 mph73%29.72 "HgN/A
5:00 PM48 °FCool.10 mph76%29.74 "HgN/A
4:00 PM45 °FCool.9 mph86%29.76 "HgN/A
3:00 PM46 °FCool.12 mph85%29.78 "HgN/A
2:00 PM49 °FCool.15 mph72%29.79 "HgN/A
1:00 PM56 °FRefreshingly cool.15 mph41%29.80 "HgN/A
12:00 PM56 °FRefreshingly cool.13 mph38%29.85 "HgN/A
11:00 AM52 °FCool.9 mph45%29.88 "HgN/A
10:00 AM50 °FCool.6 mph47%29.90 "HgN/A
9:00 AM42 °FQuite cool.3 mph53%29.93 "HgN/A
8:00 AM37 °FChilly.2 mph59%29.96 "HgN/A
7:00 AM39 °FChilly.8 mph54%29.97 "HgN/A
6:00 AM38 °FChilly.6 mph49%29.99 "HgN/A
5:00 AM33 °FChilly.3 mph60%30.01 "HgN/A
4:00 AM31 °FChilly.2 mph61%30.06 "HgN/A
3:00 AM37 °FChilly.7 mph43%30.11 "HgN/A
2:00 AM35 °FChilly.8 mph45%30.13 "HgN/A
Weather by CustomWeather, © 2015

See weather overviewHow to use our weather pages